Location: Igon
(43.1667°N, 0.2333°W)
Time: 14:13:49
(UTC+00:00)

Meteor 1-26 Rocket - Pass Details

Date: 29 November 2020
Orbit: 807 x 928 km, 81.3° (Epoch: 24 January)

Event Time Altitude Azimuth Distance (km) Brightness Sun altitude
Exits shadow 04:49:22 14° 352° (N) 2,263 6.3 -25.3°
Maximum altitude 04:54:25 82° 80° (E) 874 4.2 -24.3°
Drops below altitude 10° 04:59:59 10° 168° (SSE) 2,450 6.8 -23.3°
Sets 05:02:21 0° 169° (S) 3,364 7.6 -22.9°
